Flag for U.S.A. Weather past 2 weeks in Paterson, New Jersey, U.S.A.

Now
73 °F

Passing clouds.


Feels Like: 76 °F
Forecast: 67 / 82 °F
Wind: 5 mph from Southwest

Location: Essex County Airport

Current Time: Jul 1, 2015 at 11:41:37 PM

Latest Report: Jul 1, 2015 at 10:53 PM


Visibility: 9 mi

Pressure: 29.88 "Hg

Humidity: 62%

Dew point: 59 °F

Location of PatersonLocation

Historic Weather in Paterson — Graph

°F

Paterson temperature yesterday

Maximum temperature yesterday: 82 °F (at 12:53 PM)
Minimum temperature yesterday: 60 °F (at 3:53 AM)
Average temperature yesterday: 71 °F

Past Weeks' High & Low Weather Summary

 TemperatureHumidityPressure
High89 °F (Jun 23, 4:53 PM)97% (Jun 28, 9:53 AM)30.15 "Hg (Jun 28, 9:53 AM)
Low57 °F (Jun 25, 5:53 AM)36% (Jun 25, 11:53 AM)29.69 "Hg (Jun 28, 7:53 AM)
Average72 °F68%29.95 "Hg
* Reported Jun 16 9:53 PM — Jul 1 9:53 PM, Paterson, Weather by CustomWeather, © 2015

Note: Actual official high and low records may vary slightly from our data, if they occured in-between our weather recording intervals... More about our weather records

Advertising

Paterson weather history for previous 24 hours

 ConditionsComfort  
Time TempWeatherWind HumidityBarometerVisibility
9:53 PM
Wed, Jul 1
75 °FPassing clouds.No wind55%29.87 "Hg10 mi
8:53 PM77 °FPassing clouds.3 mph52%29.85 "Hg10 mi
7:53 PM79 °FSunny.6 mph48%29.81 "Hg10 mi
6:53 PM82 °FScattered clouds.12 mph43%29.80 "Hg10 mi
5:53 PM82 °FSunny.12 mph44%29.78 "Hg9 mi
4:53 PM83 °FScattered clouds.9 mph46%29.78 "Hg9 mi
3:53 PM82 °FPassing clouds.8 mph48%29.77 "Hg10 mi
2:53 PM83 °FSunny.5 mph48%29.78 "Hg10 mi
1:53 PM81 °FPassing clouds.14 mph51%29.80 "Hg10 mi
12:53 PM78 °FPartly sunny.9 mph58%29.81 "Hg10 mi
11:53 AM77 °FScattered clouds.6 mph58%29.81 "Hg10 mi
10:53 AM75 °FScattered clouds.10 mph62%29.81 "Hg10 mi
9:53 AM73 °FPartly sunny.5 mph76%29.81 "Hg9 mi
8:53 AM70 °FPartly sunny.5 mph84%29.80 "Hg8 mi
7:53 AM69 °FScattered clouds.6 mph87%29.80 "Hg7 mi
6:53 AM69 °FScattered clouds.3 mph87%29.79 "Hg7 mi
5:53 AM69 °FFog.No wind90%29.77 "Hg5 mi
4:53 AM70 °FLight rain. Passing clouds.No wind87%29.78 "Hg7 mi
4:03 AM72 °FHeavy rain. Fog.7 mph93%29.76 "Hg2 mi
3:53 AM73 °FLight rain. Fog.3 mph90%29.77 "Hg5 mi
2:53 AM72 °FOvercast.No wind91%29.81 "Hg8 mi
1:53 AM72 °FOvercast.5 mph91%29.81 "Hg7 mi
1:02 AM72 °FOvercast.No wind91%29.83 "Hg10 mi
11:53 PM
Tue, Jun 30
72 °FMostly cloudy.No wind87%29.85 "Hg10 mi
Weather by CustomWeather, © 2015

See weather overviewHow to use our weather pages